When you browse on this site, cookies collect data to enhance your experience and personalize the content and advertising you see.
Visit our Privacy Policy to learn more. By continuing to use the site, you agree to this use of cookies and data.
  • In Hungary
  • List of Countries
  • For 7 days
  • Water Temperature
  • Satellite Maps
  • Weather Map
  • News
  • Weather Widgets
  • user-avatar
    Login

    Hourly Weather Lichtenfels

    Today, 19 June, Wednesday

    Time Temperature Precipitation Wind Pressure Humidity
    00:00 +19°C° 0 mm 1 mps 734 mmHg 84%
    01:00 +18°C° 0 mm 1 mps 733 mmHg 87%
    02:00 +18°C° 0 mm 1 mps 733 mmHg 88%
    03:00 +18°C° 0 mm 1 mps 733 mmHg 89%
    04:00 +18°C° 0 mm 1 mps 733 mmHg 91%
    05:00 +19°C° 0 mm 1 mps 733 mmHg 86%
    06:00 +21°C° 0 mm 1 mps 733 mmHg 81%
    07:00 +22°C° 0 mm 1 mps 733 mmHg 77%
    08:00 +24°C° 0 mm 1 mps 733 mmHg 69%
    09:00 +26°C° 0 mm 1 mps 733 mmHg 61%
    10:00 +28°C° 0 mm 1 mps 733 mmHg 53%
    11:00 +29°C° 0 mm 2 mps 733 mmHg 47%
    12:00 +30°C° 0 mm 2 mps 733 mmHg 40%
    13:00 +31°C° 0 mm 2 mps 733 mmHg 34%
    14:00 +31°C° 0 mm 2 mps 732 mmHg 34%
    15:00 +31°C° 0 mm 2 mps 732 mmHg 34%
    16:00 +31°C° 0 mm 2 mps 732 mmHg 34%
    17:00 +29°C° 0 mm 2 mps 731 mmHg 43%
    18:00 +28°C° 0 mm 1 mps 731 mmHg 52%
    19:00 +26°C° 0 mm 1 mps 731 mmHg 61%
    20:00 +24°C° 0 mm 1 mps 731 mmHg 67%
    21:00 +22°C° 0 mm 1 mps 731 mmHg 73%
    22:00 +18°C° 0 mm 0 mps 732 mmHg 79%
    23:00 +18°C° 0.3 mm 0 mps 732 mmHg 82%

    Tomorrow, 20 June, Thursday

    Time Temperature Precipitation Wind Pressure Humidity
    00:00 +18°C° 0.3 mm 0 mps 732 mmHg 85%
    01:00 +19°C° 0.3 mm 1 mps 732 mmHg 88%
    02:00 +19°C° 0.3 mm 1 mps 732 mmHg 90%
    03:00 +18°C° 0.3 mm 1 mps 732 mmHg 93%
    04:00 +18°C° 0.3 mm 1 mps 732 mmHg 95%
    05:00 +18°C° 0 mm 1 mps 732 mmHg 93%
    06:00 +19°C° 0 mm 1 mps 733 mmHg 91%
    07:00 +19°C° 0 mm 2 mps 733 mmHg 90%
    08:00 +21°C° 0 mm 2 mps 733 mmHg 80%
    09:00 +22°C° 0 mm 3 mps 734 mmHg 70%
    10:00 +25°C° 0 mm 3 mps 734 mmHg 60%
    11:00 +23°C° 0.3 mm 4 mps 734 mmHg 66%
    12:00 +23°C° 0.3 mm 4 mps 734 mmHg 71%
    13:00 +22°C° 0.3 mm 5 mps 733 mmHg 77%
    14:00 +21°C° 0.4 mm 4 mps 734 mmHg 80%
    15:00 +21°C° 0.4 mm 3 mps 734 mmHg 82%
    16:00 +21°C° 0.4 mm 3 mps 734 mmHg 84%
    17:00 +20°C° 0.2 mm 2 mps 734 mmHg 85%
    18:00 +20°C° 0.2 mm 2 mps 734 mmHg 86%
    19:00 +20°C° 0.2 mm 2 mps 734 mmHg 86%
    20:00 +19°C° 0.1 mm 2 mps 734 mmHg 90%
    21:00 +18°C° 0.1 mm 1 mps 735 mmHg 93%
    22:00 +16°C° 0.1 mm 1 mps 735 mmHg 96%
    23:00 +16°C° 0 mm 1 mps 735 mmHg 97%

    Day after tomorrow, 21 June, Friday

    Time Temperature Precipitation Wind Pressure Humidity
    00:00 +14°C° 0 mm 0 mps 735 mmHg 97%
    01:00 +14°C° 0 mm 0 mps 735 mmHg 97%
    02:00 +14°C° 0 mm 0 mps 736 mmHg 97%
    03:00 +14°C° 0 mm 0 mps 736 mmHg 97%
    04:00 +14°C° 0 mm 0 mps 736 mmHg 97%
    05:00 +15°C° 0 mm 0 mps 736 mmHg 94%
    06:00 +16°C° 0 mm 0 mps 736 mmHg 91%
    07:00 +17°C° 0 mm 0 mps 737 mmHg 88%
    08:00 +18°C° 0.3 mm 0 mps 737 mmHg 84%
    09:00 +19°C° 0.3 mm 0 mps 737 mmHg 80%
    10:00 +21°C° 0.3 mm 0 mps 737 mmHg 76%
    11:00 +24°C° 0.4 mm 1 mps 737 mmHg 69%
    12:00 +25°C° 0.4 mm 1 mps 737 mmHg 62%
    13:00 +26°C° 0.4 mm 1 mps 737 mmHg 56%
    14:00 +26°C° 0.1 mm 1 mps 737 mmHg 54%
    15:00 +26°C° 0.1 mm 2 mps 736 mmHg 53%
    16:00 +26°C° 0.1 mm 2 mps 736 mmHg 51%
    17:00 +24°C° 0.1 mm 2 mps 736 mmHg 61%
    18:00 +23°C° 0.1 mm 2 mps 736 mmHg 70%
    19:00 +20°C° 0.1 mm 2 mps 736 mmHg 80%
    20:00 +19°C° 0 mm 2 mps 736 mmHg 84%
    21:00 +18°C° 0 mm 2 mps 737 mmHg 89%
    22:00 +16°C° 0 mm 2 mps 737 mmHg 93%
    23:00 +16°C° 0 mm 2 mps 737 mmHg 93%

    22 June, Saturday

    Time Temperature Precipitation Wind Pressure Humidity
    00:00 +16°C° 0 mm 2 mps 737 mmHg 93%
    01:00 +15°C° 0 mm 2 mps 737 mmHg 93%
    02:00 +15°C° 0 mm 2 mps 737 mmHg 92%
    03:00 +14°C° 0 mm 3 mps 737 mmHg 89%
    04:00 +14°C° 0 mm 3 mps 737 mmHg 86%
    05:00 +14°C° 0 mm 4 mps 737 mmHg 81%
    06:00 +15°C° 0 mm 4 mps 737 mmHg 76%
    07:00 +16°C° 0 mm 5 mps 737 mmHg 71%
    08:00 +18°C° 0 mm 4 mps 738 mmHg 69%
    09:00 +19°C° 0 mm 4 mps 738 mmHg 68%
    10:00 +20°C° 0 mm 4 mps 738 mmHg 66%
    11:00 +20°C° 0.8 mm 4 mps 737 mmHg 71%
    12:00 +20°C° 0.8 mm 3 mps 737 mmHg 76%
    13:00 +19°C° 0.8 mm 3 mps 737 mmHg 81%
    14:00 +19°C° 2.3 mm 3 mps 737 mmHg 86%
    15:00 +18°C° 2.3 mm 3 mps 737 mmHg 90%
    16:00 +17°C° 2.3 mm 3 mps 736 mmHg 95%
    17:00 +17°C° 0.2 mm 3 mps 736 mmHg 95%
    18:00 +17°C° 0.2 mm 3 mps 736 mmHg 95%
    19:00 +16°C° 0.2 mm 3 mps 736 mmHg 95%
    20:00 +16°C° 0.1 mm 3 mps 737 mmHg 95%
    21:00 +16°C° 0.1 mm 3 mps 737 mmHg 95%
    22:00 +16°C° 0.1 mm 3 mps 737 mmHg 96%
    23:00 +16°C° 1.8 mm 2 mps 737 mmHg 96%

    23 June, Sunday

    Time Temperature Precipitation Wind Pressure Humidity
    00:00 +16°C° 1.8 mm 2 mps 737 mmHg 97%
    01:00 +15°C° 1.8 mm 1 mps 737 mmHg 97%
    02:00 +15°C° 1.3 mm 2 mps 737 mmHg 97%
    03:00 +15°C° 1.3 mm 2 mps 737 mmHg 97%
    04:00 +14°C° 1.3 mm 3 mps 737 mmHg 97%
    05:00 +16°C° 0.1 mm 3 mps 737 mmHg 96%
    06:00 +16°C° 0.1 mm 3 mps 738 mmHg 96%
    07:00 +16°C° 0.1 mm 3 mps 738 mmHg 95%
    08:00 +16°C° 0 mm 3 mps 738 mmHg 94%
    09:00 +16°C° 0 mm 3 mps 739 mmHg 93%
    10:00 +16°C° 0 mm 3 mps 739 mmHg 91%
    11:00 +17°C° 0 mm 3 mps 739 mmHg 86%
    12:00 +17°C° 0 mm 4 mps 739 mmHg 82%
    13:00 +18°C° 0 mm 4 mps 739 mmHg 77%
    14:00 +19°C° 0 mm 4 mps 740 mmHg 72%
    15:00 +20°C° 0 mm 4 mps 740 mmHg 68%
    16:00 +21°C° 0 mm 4 mps 740 mmHg 63%
    17:00 +20°C° 0 mm 3 mps 740 mmHg 67%
    18:00 +20°C° 0 mm 3 mps 740 mmHg 71%
    19:00 +19°C° 0 mm 3 mps 740 mmHg 74%
    20:00 +17°C° 0 mm 3 mps 740 mmHg 80%
    21:00 +16°C° 0 mm 3 mps 740 mmHg 87%
    22:00 +14°C° 0 mm 3 mps 741 mmHg 93%
    23:00 +13°C° 0 mm 3 mps 741 mmHg 93%

    24 June, Monday

    Time Temperature Precipitation Wind Pressure Humidity
    00:00 +14°C° 0 mm 2 mps 741 mmHg 93%
    01:00 +13°C° 0 mm 2 mps 741 mmHg 93%
    02:00 +13°C° 0 mm 2 mps 741 mmHg 92%
    03:00 +12°C° 0 mm 2 mps 741 mmHg 92%
    04:00 +12°C° 0 mm 2 mps 741 mmHg 92%
    05:00 +14°C° 0 mm 2 mps 741 mmHg 83%
    06:00 +15°C° 0 mm 2 mps 741 mmHg 74%
    07:00 +17°C° 0 mm 3 mps 742 mmHg 65%
    08:00 +19°C° 0 mm 3 mps 742 mmHg 60%
    09:00 +21°C° 0 mm 3 mps 742 mmHg 55%
    10:00 +24°C° 0 mm 3 mps 742 mmHg 49%
    11:00 +25°C° 0 mm 3 mps 742 mmHg 47%
    12:00 +26°C° 0 mm 3 mps 742 mmHg 45%
    13:00 +27°C° 0 mm 3 mps 742 mmHg 43%
    14:00 +27°C° 0 mm 3 mps 742 mmHg 43%
    15:00 +28°C° 0 mm 2 mps 741 mmHg 44%
    16:00 +28°C° 0 mm 2 mps 741 mmHg 45%
    17:00 +27°C° 0 mm 2 mps 741 mmHg 52%
    18:00 +25°C° 0 mm 3 mps 741 mmHg 60%
    19:00 +24°C° 0 mm 3 mps 741 mmHg 67%
    20:00 +21°C° 0 mm 2 mps 741 mmHg 73%
    21:00 +19°C° 0 mm 2 mps 742 mmHg 78%
    22:00 +17°C° 0 mm 2 mps 742 mmHg 83%
    23:00 +17°C° 0 mm 2 mps 742 mmHg 81%
    Show more